Погода в Тайшете

Погода в Тайшете : погода сейчас, прогноз погоды и архив. Всё, что Вы хотите узнать о погоде в Тайшете!

Хотите узнать прогноз погоды в Тайшете? Тогда Вам сюда: Погода в Тайшете

Поиск расширенной информации на нашем сайте:

Другие новости

Новости СМИ2

Главная страница сайта

Новости сайта

02.10.2013

Напоминаем, что на нашем новом сайте вы можете получить высокодетализированные прогнозы погоды по пунктам России, СНГ и мира (включающие важные для авиации метеовеличины, такие как направление и скорость ветра, видимость, явления погоды, количество и форма облачности, нижняя и верхняя граница облачности), а также ознакомиться с разнообразными материалами по авиационной метеорологии и подборкой полезных ссылок на эту тему.

Сайт Метеоцентр.Азия посвящён разработке технологий оптимизации авиаметеорологического обслуживания, включая проектирование и перспективное создание нескольких автоматизированных авиаметеорологических систем:
- система выпуска высокодетальных прогностических карт явлений погоды для нижнего воздушного пространства по России и ближнему зарубежью;
- система верификации прогнозов TAF (выпускаемых синоптиками официальных АМСГ РФ и ближнего зарубежья) и AUTOTAF (выпускаемых сайтом Метеоцентр.Азия) - выявление ошибок, онлайн-сопоставление с фактической погодой METAR, автоматическое внесение коррективов в прогнозы при резком отклонении фактической погоды от прогноза, подсчёт оправдываемости прогнозов по элементам и в целом;
- система обработки, анализа и отображения авиаметеорологической информации для применения провайдерами метеорологической информации.

Рекомендуем: Дренажная помпа кондиционера.

Погода в Тайшете - сегодня

Время (UTC), дата Ветер
(°,м/с) 
Видим.   Явления Облачность Т
(°С)
Тd
(°С)
f(%) Тe
(°С)
Pmin
(гПа)
dP
(гПа)
Po
(мм)
O2
(г/м3)
Тmin Tmax R s Состояние
почвы
03 21.01.17 120 (ЮВ) 10 км  дым  10/0 средняя, верхняя 
[Ac lent|Ci fib]
-22.3 -25.6 74 -25  1032.9  -0.8  743  328           
06 21.01.17 120 (ЮВ) 20000 м    8/0 средняя, верхняя 
[Ac lent|Ci fib]
-18 -22.1 70 -21  1030.3  -1.8  742  322           
09 21.01.17 100 (В) 20000 м    10/3 600 м кучево-дожд., средняя, верхняя 
[Cb cap|Ac trans|Ci fib]
-16.9 -21.1 70 -19  1029.5  -0.7  741  320           
12 21.01.17 100 (В) н/о    10/3 600 м кучево-дожд., средняя, верхняя 
[Cb cap|Ac trans|Ci fib]
-16.5 -20.7 70 -19  1028.4  -0.8  741  319    -16.5       
15 21.01.17 100 (В) н/о    4/0 верхняя 
[Ci fib]
-18.2 -21.5 75 -22  1026.9  -1.8  739  321           
18 21.01.17 110 (В) н/о    4/0 верхняя 
[Ci fib]
-18.1 -22.2 70 -21  1025.4  -1.5  738  320           
21 21.01.17 110 (В) н/о    8/3 600 м кучево-дожд., средняя, верхняя 
[Cb cap|Ac trans|Ci fib]
-17.3 -21.5 70 -20  1024.5  -0.6  738  319           
00 22.01.17 120 (ЮВ) н/о    8/3 600 м кучево-дожд., средняя, верхняя 
[Cb cap|Ac trans|Ci fib]
-17.6 -21.8 70 -20  1024.9  0.2  738  319  -18.2      34  неравномерный
сухой снег
100% 
03 22.01.17 140 (ЮВ) 20000 м    4/0 верхняя 
[Cc]
-18.4 -22.5 70 -21  1025.8  0.8  738  321  -18.4         
06 22.01.17 120 (ЮВ) 20000 м  слаб. ливневой снег  10/10 600 м кучево-дожд. 
[Cb cap]
-15.4 -20.5 65 -18  1026  0.7  739  317           
09 22.01.17 080 (В) 20000 м  {ливн. осадки}  6/0 верхняя 
[Cc]
-13.6 -18.8 65 -14  1026.6  0.7  740  315           
12 22.01.17 150 (ЮВ) н/о    8/0 верхняя 
[Cc]
-12.3 -16.6 70 -14  1026.6  0.3  740  313    -12.3  0.2     
15 22.01.17 тихо ()   н/о    3/0 верхняя 
[Ci fib]
-17.2 -19.8 80 -17  1027.4  740  320           
18 22.01.17 130 (ЮВ) н/о    3/0 верхняя 
[Ci fib]
-16.6 -19.2 80 -19  1027.2  -0.2  740  319           
21 22.01.17 140 (ЮВ) н/о    3/0 верхняя 
[Ci fib]
-13.7 -16.4 80 -17  1026.2  -0.4  739  315           
00 23.01.17 110 (В) н/о    ясно 
-15 -18.3 76 -15  1025.8  -0.8  739  316  -17.2      34  неравномерный
сухой снег
100% 
03 23.01.17 120 (ЮВ) 20000 м    10/3 1000 м средняя, верхняя 
[Sc|Ac lent|Ci fib]
-15.1 -17.8 80 -15  1024.8  -1  738  316           
06 23.01.17 050 (СВ) 20000 м    8/3 1000 м средняя, верхняя 
[Sc|Ac lent|Ci fib]
-11.7 -17 65 -12  1022.8  -1.4  737  312           
09 23.01.17 тихо ()   20000 м    3/1 1000 м верхняя 
[Sc|Ci fib]
-11.1 -17.3 60 -11  1020.9  -1.7  736  310           
12 23.01.17 100 (В) н/о    ясно 
-13.2 -16.7 75 -15  1019.8  -1.7  735  312    -11.1       
15 23.01.17 120 (ЮВ) н/о    ясно 
-12.1 -16.5 70 -15  1017.3  -2.3  733  310           
18 23.01.17 120 (ЮВ) н/о    ясно 
-14 -18.3 70 -18  1015.8  -1.7  732  312           
21 23.01.17 120 (ЮВ) н/о    ясно 
-16 -19.4 75 -16  1013.6  -2.4  730  314           
00 24.01.17 160 (Ю) н/о    10/3 1000 м средняя 
[Sc|Ac trans]
-13.6 -17.9 70 -16  1014.8  1.5  731  311  -16      34  неравномерный
мокрый или
старый снег
100% 
03 24.01.17 030 (СВ) 20000 м    10/8 600 м кучево-дожд., средняя, верхняя 
[Cb cap|Ac lent|Ci fib]
-14.8 -18.2 75 -15  1017.2  733  314           
Время (UTC), дата Ветер
(°,м/с) 
Видим.   Явления Облачность Т
(°С)
Тd
(°С)
f(%) Тe
(°С)
Pmin
(гПа)
dP
(гПа)
Po
(мм)
O2
(г/м3)
Тmin Tmax R s Состояние
почвы

Для получения пояснительной информации подведите курсор к названию столбца.

ПОГОДА в Тайшете - архив

Всё, что Вы хотите узнать о погоде в Тайшете - удобно и подробно!

Выберите нужную дату (начиная с 1 января 2015* года) и нажмите кнопку "Найти".
Будут отображены архивные сводки погоды по пункту Тайшет, начиная с указанной даты.


Отображать данные в формате CSV (для использования в таблицах Excel)


Внимание! Наш архив погоды предназначен исключительно для личного некоммерческого использования в познавательных целях. Если Вам необходимы официальные справки о состоянии погоды (для производственных, юридических, коммерческих и т.п. целей), обращайтесь в органы Росгидромета.

*Примечание: данная дата относится к архиву по метеостанциям СССР (Россия, СНГ, Балтия).
Архив по метеостанциям Зарубежной Европы и Азии (кроме Китая) хранится 10 дней, по другим регионам земного шара (Китай, Африка, Америка, Австралия, Океания) - 1 день.

Тайшет - район местоположения метеостанции


Название, широта, долгота, высота метеостанции:
Тайшет 55.9°ш. 98°д. 307 м над ур. моря [Российская Федерация]

Дополнительная информация

В oтличие oт бoльшинства пoгoдных сайтoв мы публикуем пoдрoбную метеoинфoрмацию в детальнoм прoфессиoнальнoм фoрмате.

Характеристики температуры и влажнoсти вoздуха измеряются на высoте 2 м в тени вдали oт зданий и деревьев.
Скoрoсть ветра измеряется на высoте 10 м (на урoвне рoста челoвека скoрoсть ветра ниже в 1.5-2 раза). Если метеoстанция нахoдится в гoрoде или в лесу, тo скoрoсть ветра занижена на 2-4 м/с пo сравнению с oткрытым местoм. Скoрoсть ветра над акватoриями крупных рек и oзёр, а также на вершинах хoлмoв на 2-5 м/с выше, чем в oбычных услoвиях.
Атмoсфернoе давление в разных тoчках местнoсти мoжет значительнo oтличаться oт давления на метеoстанции, в зависимoсти oт услoвий рельефа (при пoдъёме на 10 м давление пoнижается примернo на 1 мм рт.ст.).